Location: Shannon
(40.5500°S, 175.4167°E)
Time: 20:13:11
(UTC+00:00)

ARGOS - Pass Details

Date: 17 November 2025
Orbit: 819 x 832 km, 98.5° (Epoch: 14 December)

Event Time Altitude Azimuth Distance (km) Brightness Sun altitude
Rises 15:10:20 0° 19° (NNE) 3,356 6.1 -16.2°
Reaches altitude 10° 15:12:40 10° 20° (NNE) 2,429 5.4 -15.9°
Maximum altitude 15:18:03 78° 105° (ESE) 855 3.3 -15.1°
Drops below altitude 10° 15:23:29 10° 190° (S) 2,452 6.0 -14.4°
Sets 15:25:51 0° 191° (S) 3,390 6.8 -14.0°
